Location: Forst
(46.9333°N, 15.4333°E)
Time: 16:01:34
(UTC+00:00)

BREEZE-M DEB (TANK) - Pass Details

Date: 01 December 2020
Orbit: 306 x 13101 km, 49.6° (Epoch: 27 January)

Event Time Altitude Azimuth Distance (km) Brightness Sun altitude
Rises 15:52:01 0° 265° (W) 2,608 7.9 -6.9°
Reaches altitude 10° 15:53:24 10° 267° (W) 2,000 7.0 -7.2°
Maximum altitude 15:57:30 75° 354° (N) 1,143 4.4 -7.8°
Drops below altitude 10° 16:12:32 10° 81° (E) 6,771 7.7 -10.2°
Enters shadow 16:13:00 - 81° (E) 6,939 7.7 -10.2°
